sat.trackr.live / text

‹ back to catalog

ONEWEB-0019

NORAD 45449 · 2020-020AB

PAYLOAD ACTIVE UNKNOWN

§ Identity

Operator
Country
UK
Launch date
2020-03-21
Launch site
TYMSC
Launch vehicle
Mass (kg)
RCS (m²)

Purposes: comms

External: N2YO · Heavens-Above · Gunter

§ Orbital elements

Epoch: 2026-09-19T14:12:11.334240Z

Period
109.81 min
Inclination
87.8970°
Eccentricity
0.0001644
Mean motion
13.11414574 rev/d
Perigee alt
1,216.4 km
Apogee alt
1,218.9 km
Semi-major
7,595.8 km
B*
5.3359e-4
RAAN
2.2899°
Arg perigee
94.8993°
Mean anomaly
265.2323°
Rev number
31,491

§ Raw data

ONEWEB-00191 45449U 20020AB  26262.59179785  .00000202  00000+0  53359-3 0  99902 45449  87.8970   2.2899 0001644  94.8993 265.2323 13.11414574314916

JSON: /api/v1/satellites/45449 · /tle

For live sub-satellite position, see the globe view (requires WebGL).

§ Visibility from observer

Set your observer location to see the next 7 days of passes ≥ 10°. The values pass through the URL so the page stays shareable.

No JS? Fill the form by hand. The geolocation button needs JavaScript.